[[{"header":{"parameterUnit":"m.s-1","parameterCategory":1,"la1":30.2991,"la2":30.254,"lo1":-89.0895,"lo2":-89.0444,"dy":0.0017,"dx":0.0017,"nx":28,"ny":28,"refTime":"2025-11-07T09:00:00:Z","depth":0,"parameterNumber":2,"parameterNumberName":"U-component_of_WINDS"},"data":[0,0,0,0,0,0,0,0,0,0,0,0,0,0,0,0,0,0,0,0,0,0,0,0,0,0,0,0,0,0,0,0,0,0,0,0,0,0,0,0,0,0,0,0,0,0,0,0,0,0,0,0,0,0,0,0,0,0,-0.7893,-0.7892,0,-0.7804,-0.7803,-0.7802,-0.7792,-0.7793,-0.7793,-0.7794,-0.7697,-0.7694,-0.769,0,0,0,0,0,0,0,0,0,0,0,0,0,-0.8048,-0.8045,-0.7893,-0.7892,-0.7891,-0.7804,-0.7803,-0.7802,-0.7792,-0.7793,-0.7794,-0.7795,-0.7698,-0.7694,-0.769,0,0,0,0,0,0,0,0,0,0,0,0,0,-0.7972,-0.8045,-0.7893,-0.7876,-0.7873,-0.7805,-0.7803,-0.7802,-0.7791,-0.7793,-0.7794,-0.7795,-0.77,-0.7695,-0.7689,-0.7631,0,0,-0.7674,-0.7672,0,0,0,0,0,0,0,0,-0.7976,-0.7966,-0.7879,-0.7877,-0.7874,-0.7811,-0.7822,-0.7744,-0.7791,-0.7822,-0.7794,-0.7796,-0.7733,-0.7726,-0.7706,-0.7626,-0.7622,-0.7673,-0.767,-0.7668,-0.7667,0,0,0,0,0,0,0,-0.7982,-0.797,-0.7858,-0.7878,-0.7875,-0.787,-0.7861,-0.7807,-0.7771,-0.782,-0.7819,-0.7809,-0.7732,-0.7711,-0.7703,-0.7621,-0.7673,-0.7669,-0.7666,-0.7664,-0.7488,-0.7486,0,0,0,0,0,0,-0.7991,-0.7975,-0.7861,-0.7855,-0.793,-0.7866,-0.7856,-0.7829,-0.7772,-0.7764,-0.7807,-0.7808,-0.7719,-0.7709,-0.77,-0.7626,-0.7668,-0.7663,-0.766,-0.7489,-0.7487,-0.7486,0,0,0,0,0,0,-0.7995,-0.7981,-0.7864,-0.7915,-0.7899,-0.7862,-0.7833,-0.7827,-0.7806,-0.7763,-0.7756,-0.7793,-0.7719,-0.7707,-0.7648,-0.7623,-0.7661,-0.7656,-0.7491,-0.7489,-0.7487,-0.748,0,0,0,0,0,0,-0.7999,-0.7982,-0.7961,-0.7914,-0.7897,-0.7816,-0.7831,-0.7824,-0.7797,-0.7798,-0.7747,-0.774,-0.772,-0.7656,-0.7643,-0.7617,-0.7652,-0.7493,-0.749,-0.7487,-0.7482,-0.7478,-0.7474,0,0,0,0,0,-0.8005,-0.7962,-0.796,-0.7946,-0.787,-0.7815,-0.7804,-0.7784,-0.7796,-0.7773,-0.7745,-0.7741,-0.7629,-0.765,-0.7636,-0.7607,-0.7495,-0.7491,-0.7488,-0.7484,-0.7479,-0.7474,0,0,0,0,0,0,-0.8004,-0.7955,-0.7953,-0.7894,-0.7859,-0.7813,-0.7784,-0.7779,-0.7738,-0.7739,-0.7714,-0.7703,-0.7645,-0.762,-0.7645,-0.7547,-0.7562,-0.7556,-0.7565,-0.7559,-0.7555,-0.7561,-0.7648,0,0,0,0,0,-0.7998,-0.7959,-0.7917,-0.7869,-0.7852,-0.7821,-0.7796,-0.7784,-0.7745,-0.773,-0.7698,-0.7659,-0.7615,-0.7586,-0.7543,-0.7479,-0.7467,-0.7453,-0.7448,-0.7445,-0.7439,-0.7402,-0.7395,-0.7474,-0.7474,-0.7474,0,0,-0.7983,-0.7951,-0.7928,-0.7868,-0.784,-0.7798,-0.7808,-0.7764,-0.7732,-0.7722,-0.7665,-0.764,-0.7595,-0.7534,-0.7505,-0.7512,-0.7415,-0.7441,-0.7438,-0.7434,-0.7398,-0.739,-0.7384,-0.7472,-0.7472,-0.7472,0,0,-0.7934,-0.7908,-0.7864,-0.7835,-0.7793,-0.7772,-0.7762,-0.7717,-0.7701,-0.7644,-0.7635,-0.7596,-0.7521,-0.7489,-0.7463,-0.7403,-0.7397,-0.739,-0.7366,-0.7331,-0.7325,-0.7319,-0.7296,-0.7288,-0.7384,-0.7384,-0.7384,0,-0.792,-0.7859,-0.7842,-0.7798,-0.7771,-0.7763,-0.7717,-0.769,-0.7634,-0.7615,-0.7624,-0.7529,-0.7498,-0.7429,-0.7414,-0.7394,-0.738,-0.7394,-0.7328,-0.7322,-0.7316,-0.7294,-0.7285,-0.7383,-0.7383,-0.7384,-0.7384,0,-0.7844,-0.7802,-0.7771,-0.772,-0.769,-0.7645,-0.7619,-0.7591,-0.7581,-0.7559,-0.75,-0.7464,-0.7413,-0.7396,-0.7385,-0.7324,-0.7329,-0.7333,-0.7348,-0.7308,-0.7287,-0.7278,-0.7382,-0.7383,-0.7383,-0.7383,0,0,-0.7791,-0.7731,-0.772,-0.7697,-0.7649,-0.7615,-0.757,-0.7522,-0.7497,-0.7459,-0.7419,-0.7356,-0.736,-0.733,-0.7316,-0.7285,-0.7238,-0.7292,-0.7291,-0.7282,-0.7167,-0.7163,-0.7153,-0.7235,-0.7234,-0.7232,-0.717,0,-0.7736,-0.7656,-0.7639,-0.757,-0.753,-0.7522,-0.7482,-0.7447,-0.7426,-0.7387,-0.7363,-0.7318,-0.7327,-0.7309,-0.7279,-0.7251,-0.7214,-0.7255,-0.7195,-0.7193,-0.7205,-0.7143,-0.7138,-0.7081,-0.7162,-0.716,-0.7159,0,-0.766,-0.7622,-0.755,-0.7507,-0.749,-0.7455,-0.7409,-0.7373,-0.7333,-0.732,-0.7287,-0.7277,-0.7227,-0.7246,-0.7176,-0.7205,-0.7179,-0.7162,-0.7159,-0.7151,-0.7172,-0.7131,-0.7063,-0.7054,-0.7146,-0.7147,-0.7148,0,-0.7627,-0.7558,-0.7505,-0.7485,-0.7435,-0.741,-0.7388,-0.735,-0.7322,-0.7281,-0.7263,-0.7217,-0.7191,-0.7155,-0.7131,-0.7148,-0.7063,-0.708,-0.7048,-0.7049,-0.7029,-0.703,-0.6954,-0.7016,-0.7016,-0.7016,-0.7017,0,-0.7566,-0.7521,-0.749,-0.7457,-0.7406,-0.7386,-0.7336,-0.7313,-0.728,-0.7241,-0.7231,-0.7195,-0.7167,-0.7126,-0.7107,-0.7052,-0.704,-0.7026,-0.7021,-0.7026,-0.7028,-0.7008,-0.701,-0.7014,-0.7015,-0.7015,-0.7015,0,-0.7519,-0.7496,-0.7438,-0.7396,-0.7384,-0.7349,-0.7311,-0.7278,-0.7258,-0.7209,-0.7196,-0.7163,-0.7114,-0.7088,-0.7027,-0.7014,-0.6951,-0.6949,-0.6965,-0.6962,-0.6932,-0.6934,-0.6838,-0.6824,-0.6897,-0.6897,-0.6896,0,-0.7481,-0.7446,-0.7401,-0.7375,-0.7353,-0.7312,-0.7284,-0.7263,-0.7234,-0.7186,-0.7158,-0.711,-0.707,-0.6993,-0.6961,-0.6914,-0.691,-0.688,-0.6903,-0.6908,-0.6907,-0.6909,-0.6905,-0.6875,-0.6874,-0.6874,-0.6873,0,-0.7414,-0.7405,-0.7366,-0.7323,-0.7291,-0.7255,-0.722,-0.7199,-0.7172,-0.714,-0.7091,-0.7061,-0.6999,-0.695,-0.6901,-0.6876,-0.6869,-0.6867,-0.6857,-0.686,-0.687,-0.6862,-0.6952,-0.6868,-0.6869,-0.6869,-0.687,-0.687,-0.7369,-0.7338,-0.7301,-0.7258,-0.723,-0.7197,-0.7164,-0.714,-0.71,-0.7049,-0.7039,-0.6987,-0.6948,-0.6881,-0.6855,-0.6812,-0.6818,-0.6804,-0.68,-0.6796,-0.6794,-0.6879,-0.6804,-0.6804,-0.6804,-0.6804,-0.6804,0,-0.7301,-0.7277,-0.7238,-0.719,-0.7155,-0.7155,-0.7116,-0.7087,-0.7042,-0.7007,-0.6968,-0.6912,-0.6865,-0.6831,-0.6782,-0.6755,-0.675,-0.6742,-0.6743,-0.6737,-0.6792,-0.6805,-0.6747,-0.6747,-0.6747,-0.6747,-0.6747,-0.6747,-0.7261,-0.7208,-0.7194,-0.7127,-0.7103,-0.7053,-0.7031,-0.7,-0.6972,-0.691,-0.6872,-0.6851,-0.6815,-0.6764,-0.672,-0.6711,-0.6693,-0.6685,-0.6675,-0.6727,-0.6733,-0.6739,-0.6751,-0.6682,-0.6681,-0.6623,-0.6622,-0.6622]},{"header":{"parameterUnit":"m.s-1","parameterCategory":1,"la1":30.2991,"la2":30.254,"lo1":-89.0895,"lo2":-89.0444,"dy":0.0017,"dx":0.0017,"nx":28,"ny":28,"refTime":"2025-11-07T09:00:00:Z","depth":0,"parameterNumber":3,"parameterNumberName":"V-component_of_WINDS"},"data":[0,0,0,0,0,0,0,0,0,0,0,0,0,0,0,0,0,0,0,0,0,0,0,0,0,0,0,0,0,0,0,0,0,0,0,0,0,0,0,0,0,0,0,0,0,0,0,0,0,0,0,0,0,0,0,0,0,0,3.2848,3.2849,0,3.2943,3.2944,3.2945,3.296,3.296,3.2959,3.2958,3.3051,3.3055,3.3058,0,0,0,0,0,0,0,0,0,0,0,0,0,3.2675,3.2678,3.2847,3.2849,3.285,3.2942,3.2944,3.2945,3.2961,3.296,3.2959,3.2958,3.305,3.3054,3.3058,0,0,0,0,0,0,0,0,0,0,0,0,0,3.2758,3.2679,3.2847,3.2869,3.2872,3.2942,3.2944,3.2945,3.2961,3.296,3.2958,3.2957,3.3049,3.3054,3.3059,3.3113,0,0,3.3073,3.3076,0,0,0,0,0,0,0,0,3.2753,3.2764,3.2864,3.2867,3.2871,3.2939,3.2917,3.3001,3.2961,3.2927,3.2958,3.2957,3.3015,3.3022,3.3043,3.3117,3.3121,3.3074,3.3077,3.3079,3.308,0,0,0,0,0,0,0,3.2747,3.276,3.2885,3.2866,3.287,3.2872,3.2883,3.2933,3.2976,3.293,3.2931,3.2942,3.3016,3.3038,3.3045,3.3123,3.3074,3.3078,3.3081,3.3083,3.3247,3.3249,0,0,0,0,0,0,3.2738,3.2755,3.2882,3.2888,3.2808,3.2876,3.2888,3.2918,3.2976,3.2983,3.2943,3.2943,3.303,3.3039,3.3048,3.3117,3.3079,3.3083,3.3086,3.3246,3.3248,3.3249,0,0,0,0,0,0,3.2735,3.275,3.2878,3.2822,3.2839,3.2881,3.2914,3.292,3.2942,3.2986,3.2993,3.2958,3.303,3.3041,3.3097,3.312,3.3086,3.309,3.3244,3.3247,3.3249,3.3254,0,0,0,0,0,0,3.273,3.2748,3.277,3.2822,3.2842,3.2927,3.2915,3.2923,3.2951,3.2951,3.3002,3.3009,3.3029,3.309,3.3102,3.3126,3.3094,3.3242,3.3245,3.3248,3.3252,3.3256,3.3259,0,0,0,0,0,3.2723,3.2767,3.2771,3.2787,3.287,3.2928,3.2939,3.2963,3.2953,3.2975,3.3003,3.3007,3.3115,3.3095,3.3109,3.3135,3.3241,3.3245,3.3248,3.325,3.3255,3.3259,0,0,0,0,0,0,3.2715,3.2774,3.278,3.2842,3.288,3.2931,3.296,3.2967,3.3008,3.3006,3.3033,3.3044,3.3099,3.3122,3.3099,3.3191,3.3177,3.3183,3.3174,3.318,3.3183,3.3177,3.3098,0,0,0,0,0,3.272,3.2764,3.2812,3.2862,3.2881,3.2917,3.2943,3.2958,3.2998,3.3014,3.3046,3.3084,3.3127,3.3154,3.3195,3.3254,3.3266,3.3279,3.3283,3.3286,3.3291,3.3325,3.3332,3.326,3.326,3.326,0,0,3.2732,3.277,3.2795,3.2862,3.2893,3.2937,3.2931,3.2976,3.3009,3.3021,3.3077,3.3101,3.3145,3.3203,3.323,3.3224,3.3313,3.329,3.3292,3.3296,3.3329,3.3336,3.3342,3.3262,3.3262,3.3262,0,0,3.2776,3.2808,3.2854,3.2886,3.2934,3.2958,3.2968,3.3018,3.3036,3.3092,3.3102,3.314,3.3212,3.3243,3.3268,3.3323,3.3329,3.3336,3.3356,3.3389,3.3394,3.34,3.342,3.3427,3.3341,3.3341,3.3341,0,3.2784,3.2851,3.2876,3.2923,3.2951,3.2965,3.3011,3.304,3.3099,3.3118,3.3111,3.3203,3.3233,3.3299,3.3312,3.3332,3.3345,3.3331,3.3392,3.3397,3.3402,3.3422,3.343,3.3341,3.3341,3.3341,3.3341,0,3.2859,3.2906,3.2936,3.2995,3.3026,3.3072,3.3103,3.3132,3.3144,3.3168,3.3225,3.3261,3.3311,3.3327,3.3338,3.3395,3.339,3.3387,3.3374,3.341,3.3429,3.3437,3.3342,3.3342,3.3342,3.3342,0,0,3.2902,3.2973,3.2984,3.3011,3.3065,3.3101,3.3146,3.3196,3.3221,3.326,3.3299,3.336,3.3358,3.3386,3.3401,3.3429,3.3472,3.3423,3.3424,3.3432,3.3537,3.354,3.3549,3.3475,3.3477,3.3478,3.3534,0,3.2953,3.3038,3.3061,3.3132,3.3175,3.3188,3.3228,3.3265,3.3288,3.3326,3.3351,3.3394,3.3387,3.3405,3.3433,3.3461,3.3494,3.3457,3.3512,3.3513,3.3503,3.3559,3.3562,3.3614,3.3541,3.3543,3.3544,0,3.3025,3.3068,3.3143,3.3192,3.3211,3.3247,3.3294,3.3331,3.3372,3.3387,3.3419,3.3431,3.3478,3.3461,3.3527,3.3501,3.3525,3.3541,3.3544,3.3551,3.3532,3.3569,3.363,3.3639,3.3556,3.3555,3.3554,0,3.3051,3.3126,3.3182,3.3204,3.3262,3.3286,3.3311,3.3352,3.338,3.3421,3.344,3.3484,3.3509,3.3543,3.3567,3.3552,3.3631,3.3615,3.3644,3.3644,3.3662,3.3661,3.3729,3.3674,3.3674,3.3674,3.3673,0,3.3107,3.3153,3.3194,3.3228,3.328,3.3305,3.3355,3.338,3.3416,3.3454,3.3467,3.3503,3.3531,3.357,3.3588,3.364,3.3651,3.3664,3.3669,3.3664,3.3663,3.3681,3.3679,3.3676,3.3675,3.3675,3.3674,0,3.3145,3.3174,3.3236,3.3285,3.3299,3.3335,3.3377,3.341,3.3433,3.3481,3.3494,3.353,3.3577,3.3603,3.3661,3.3674,3.3732,3.3734,3.3719,3.3721,3.3749,3.3747,3.3833,3.3846,3.3781,3.3781,3.3782,0,3.3179,3.3216,3.3269,3.3297,3.3323,3.3366,3.3396,3.3422,3.3452,3.3501,3.3528,3.3576,3.3616,3.3689,3.372,3.3764,3.3769,3.3796,3.3775,3.377,3.3771,3.3769,3.3773,3.38,3.38,3.3801,3.3801,0,3.3239,3.3251,3.3294,3.3342,3.3378,3.3416,3.3454,3.3475,3.3507,3.354,3.3589,3.362,3.368,3.3727,3.3774,3.3798,3.3805,3.3807,3.3817,3.3813,3.3804,3.3811,3.373,3.3806,3.3805,3.3805,3.3805,3.3804,3.3277,3.331,3.3354,3.3401,3.3432,3.3468,3.3502,3.3529,3.3571,3.3623,3.3635,3.3686,3.3726,3.379,3.3815,3.3855,3.385,3.3863,3.3867,3.387,3.3872,3.3796,3.3864,3.3863,3.3863,3.3863,3.3863,0,3.3339,3.3367,3.341,3.3464,3.3501,3.3505,3.3547,3.3578,3.3623,3.366,3.3699,3.3755,3.3801,3.3835,3.3881,3.3907,3.3911,3.3918,3.3917,3.3923,3.3873,3.3861,3.3914,3.3914,3.3914,3.3914,3.3914,3.3914,3.3375,3.3431,3.3449,3.3521,3.3548,3.36,3.3624,3.3657,3.3687,3.3749,3.3788,3.381,3.3845,3.3895,3.3936,3.3945,3.3962,3.3969,3.3978,3.3932,3.3926,3.3921,3.391,3.3972,3.3972,3.4025,3.4026,3.4026]}]]